OV1-4 R/B, 2124

Orbit data source: Space-Track

OV1-4 R/B, 2124 is space debris in LEO originally from a launch on Wed, 30 Mar 1966 UTC launched from the Air Force Western Test Range (AFWTR). Debris objects in space refer to the collection of defunct objects orbiting the Earth. Examples of debris include non-operational satellites, rocket bodies, and fragments generated from explosions, collisions, or faulty payload assembly.

Loading next visibility...
Identifier
2124, 1966-025D
Orbit
LEO
Last TLE update
6 hours ago
Origin
Manufacturer
ABL
Mission
Spacecraft
Bus & Motor
ALTAIR, Unknown motor
Mass
~125 kg wet, ~125 kg dry
Launch date (UTC)
1966-03-30 (59 years ago)
Launch vehicle
Unknown
Launch site
Air Force Western Test Range (AFWTR)
Object type
Payload
Rocket body
Debris
Shape & HBR
Cyl, 2.1 m
Radar Cross Section
1.347 m², Medium (>0.1 m² and < 1m²)

Expand to show TLE details & history

TLE from 6 hours ago
0 OV1-4 R/B
1 02124U 66025D   25183.96663504  .00000338  00000-0  56177-4 0  9990
2 02124 144.5098 100.7101 0080316 133.8592 226.8749 13.87771502  3069
Epoch: 2025-07-02T23:11Z
TLE epoch observation values (Epoch: 2025-07-02T23:11:57.267Z)
Latitude
-0.00003°
Longitude
-168.51862°
Altitude
975.872 km
Speed
7.345 km/s
True Right ascension
06h 42m 50s
True Declination
0° 00' 00"
Sunlit
Object was in daylight at epoch
Visualization orbit readout
Latitude
34.53875°
Longitude
118.86129°
Altitude
906.379 km
Speed
7.419 km/s
Apparent Right ascension
03h 02m 58s
Apparent Declination
0° 13' 01"
Sunlit
Object is in daylight
Visualization observer readout
Local Sidereal Time
16:30:17
Azimuth
31.848° NE
Elevation
-45.199°
Doppler factor
1
Orbital elements
Apogee altitude
998.205 km
Perigee altitude
880.662 km
Semi-major axis
7,317.571 km
Eccentricity
0.00803
Inclination
144.5098°
RAAN
100.7101°
Arg. of periapsis
133.8592°
True anomaly
Unknown
Mean anomaly
226.8749°
Eccentric anomaly
Unknown
Mean motion
3.46731 °/min
Orbital period
103.83 mins
BSTAR
0.000056177
Loading maneuver chart data...
Loading SW <> Apogee altitude chart data...
Loading historical data...
Loading historical data...
Loading historical data...
Loading historical data...
Loading historical data...
Loading historical data...
Loading historical data...

OV1-4 R/B Visibility forecast

Observer location: undefined°, undefined°

Span
Click to sort rows by Start time (UTC) header in descending order
Start Az.
Max El. time (UTC)
Max El. Az.
Max El.
End time (UTC)
End Az.
8 mins2025-07-03 10:04:53.237Z102.896° ESE2025-07-03 10:08:53.237Z154.813° SSE23.942°2025-07-03 10:12:53.237Z209.167° SW
8 mins2025-07-03 11:43:53.237Z102.057° ESE2025-07-03 11:47:53.237Z183.712° SSW36.466°2025-07-03 11:51:53.237Z240.546° WSW
9 mins2025-07-03 13:21:53.237Z108.658° ESE2025-07-03 13:25:53.237Z187.355° SSW40.037°2025-07-03 13:30:53.237Z260.482° W
9 mins2025-07-03 14:59:53.237Z130.24° SE2025-07-03 15:03:53.237Z189.274° SSW33.547°2025-07-03 15:08:53.237Z263.77° W
6 mins2025-07-03 16:39:53.237Z172.239° S2025-07-03 16:42:53.237Z211.069° SW19.161°2025-07-03 16:45:53.237Z247.367° WSW
|